| time (UTC) | temp F | wind direction | speed MPH | gust MPH | rain 1hr in | rain 24hr in | rain mn in | humidity % | barometer mb |
| 20260506152517 | 59 | 0.0 | 0.0 | 0.07 | 0.12 | 0.12 | 93 | 1009.9 | |
| 20260506151537 | 59 | 0.0 | 0.0 | 0.07 | 0.11 | 0.11 | 93 | 1010.1 | |
| 20260506150517 | 59 | 0.0 | 0.0 | 0.07 | 0.10 | 0.10 | 93 | 1010.1 | |
| 20260506145517 | 59 | 0.0 | 0.0 | 0.07 | 0.09 | 0.09 | 93 | 1010.3 | |
| 20260506144517 | 59 | 0.0 | 0.0 | 0.06 | 0.08 | 0.08 | 92 | 1010.5 | |
| 20260506143517 | 59 | 0.0 | 0.0 | 0.06 | 0.07 | 0.07 | 92 | 1010.6 | |
| 20260506142517 | 59 | 0.0 | 0.0 | 0.04 | 0.05 | 0.05 | 92 | 1010.7 | |
| 20260506141537 | 59 | 0.0 | 0.0 | 0.03 | 0.04 | 0.04 | 91 | 1010.8 | |
| 20260506140557 | 60 | 0.0 | 0.0 | 0.02 | 0.03 | 0.03 | 90 | 1010.9 | |
| 20260506135517 | 60 | 0.0 | 0.0 | 0.01 | 0.02 | 0.02 | 89 | 1011.0 | |
| 20260506134517 | 60 | 0.0 | 0.0 | 0.02 | 0.02 | 0.02 | 88 | 1011.0 | |
| 20260506133517 | 61 | 0.0 | 0.0 | 0.01 | 0.01 | 0.01 | 88 | 1011.1 | |
| 20260506132517 | 61 | 0.0 | 0.0 | 0.01 | 0.01 | 0.01 | 87 | 1011.2 | |
| 20260506131516 | 60 | 0.0 | 0.0 | 0.01 | 0.01 | 0.01 | 87 | 1010.9 | |
| 20260506130516 | 60 | 0.0 | 0.0 | 0.01 | 0.01 | 0.01 | 87 | 1010.9 | |
| 20260506125517 | 60 | 0.0 | 0.0 | 0.01 | 0.01 | 0.01 | 88 | 1010.7 | |
| 20260506124557 | 60 | 0.0 | 0.0 | 0.00 | 0.00 | 0.00 | 86 | 1010.7 | |
| 20260506123517 | 61 | 0.0 | 0.0 | 0.00 | 0.00 | 0.00 | 85 | 1010.8 | |
| 20260506122517 | 61 | 0.0 | 0.0 | 0.00 | 0.00 | 0.00 | 84 | 1010.9 | |
| 20260506121517 | 61 | 0.0 | 0.0 | 0.00 | 0.00 | 0.00 | 83 | 1011.0 | |
| 20260506120517 | 62 | 0.0 | 0.0 | 0.00 | 0.00 | 0.00 | 82 | 1011.0 | |
| 20260506115516 | 62 | 0.0 | 0.0 | 0.00 | 0.00 | 0.00 | 81 | 1011.0 | |
| 20260506114517 | 62 | 0.0 | 0.0 | 0.00 | 0.00 | 0.00 | 80 | 1011.0 | |
| 20260506113517 | 62 | 0.0 | 0.0 | 0.00 | 0.00 | 0.00 | 80 | 1011.1 | |
| 20260506112517 | 62 | 0.0 | 1.0 | 0.00 | 0.00 | 0.00 | 80 | 1011.2 | |
| 20260506111537 | 62 | 0.0 | 0.0 | 0.00 | 0.00 | 0.00 | 80 | 1011.2 | |
| 20260506110516 | 62 | 0.0 | 0.0 | 0.00 | 0.00 | 0.00 | 80 | 1011.0 | |
| 20260506105516 | 61 | 0.0 | 0.0 | 0.00 | 0.00 | 0.00 | 79 | 1010.8 | |
| 20260506104516 | 61 | 0.0 | 0.0 | 0.00 | 0.00 | 0.00 | 79 | 1011.0 | |
| 20260506103516 | 61 | 0.0 | 0.0 | 0.00 | 0.00 | 0.00 | 79 | 1010.7 | |
| 20260506102516 | 61 | 0.0 | 0.0 | 0.00 | 0.00 | 0.00 | 78 | 1010.8 | |
| 20260506101516 | 61 | 0.0 | 0.0 | 0.00 | 0.00 | 0.00 | 78 | 1010.9 | |
| 20260506100516 | 61 | 0.0 | 0.0 | 0.00 | 0.00 | 0.00 | 77 | 1010.8 | |
| 20260506095516 | 61 | 0.0 | 0.0 | 0.00 | 0.00 | 0.00 | 77 | 1010.9 | |
| 20260506094536 | 61 | 0.0 | 0.0 | 0.00 | 0.00 | 0.00 | 76 | 1011.0 | |
| 20260506093516 | 61 | 0.0 | 0.0 | 0.00 | 0.00 | 0.00 | 76 | 1010.8 | |
| 20260506092536 | 61 | 0.0 | 0.0 | 0.00 | 0.00 | 0.00 | 75 | 1010.8 | |
| 20260506091516 | 61 | 0.0 | 0.0 | 0.00 | 0.00 | 0.00 | 74 | 1010.8 | |
| 20260506090516 | 61 | 0.0 | 0.0 | 0.00 | 0.00 | 0.00 | 74 | 1011.3 | |
| 20260506085516 | 61 | 0.0 | 0.0 | 0.00 | 0.00 | 0.00 | 74 | 1011.3 | |
| 20260506084516 | 61 | 0.0 | 0.0 | 0.00 | 0.00 | 0.00 | 73 | 1011.3 | |
| 20260506083516 | 61 | 0.0 | 0.0 | 0.00 | 0.00 | 0.00 | 73 | 1011.2 | |
| 20260506082516 | 61 | 0.0 | 0.0 | 0.00 | 0.00 | 0.00 | 73 | 1011.3 | |
| 20260506081516 | 61 | 0.0 | 0.0 | 0.00 | 0.00 | 0.00 | 73 | 1011.2 | |
| 20260506080516 | 61 | 0.0 | 0.0 | 0.00 | 0.00 | 0.00 | 72 | 1011.4 | |
| 20260506072516 | 62 | 0.0 | 0.0 | 0.00 | 0.00 | 0.00 | 69 | 1011.6 | |
| 20260506071517 | 63 | 0.0 | 0.0 | 0.00 | 0.00 | 0.00 | 68 | 1011.7 | |
| 20260506070558 | 63 | 0.0 | 0.0 | 0.00 | 0.00 | 0.00 | 67 | 1011.7 | |
| 20260506062516 | 64 | 0.0 | 0.0 | 0.00 | 0.00 | 0.00 | 65 | 1012.2 | |
| 20260506061516 | 64 | 0.0 | 0.0 | 0.00 | 0.00 | 0.00 | 65 | 1012.4 | |
| 20260506060516 | 64 | 0.0 | 0.0 | 0.00 | 0.00 | 0.00 | 65 | 1012.4 | |
| 20260506050516 | 65 | 0.0 | 3.0 | 0.00 | 0.00 | 0.00 | 62 | 1012.7 | |
| 20260506044516 | 66 | 90 | 1.0 | 7.0 | 0.00 | 0.00 | 0.00 | 60 | 1012.6 |
| 20260506043516 | 66 | 0.0 | 3.0 | 0.00 | 0.00 | 0.00 | 59 | 1012.7 | |
| 20260506042516 | 66 | 203 | 1.0 | 6.0 | 0.00 | 0.00 | 0.00 | 59 | 1012.6 |
| 20260506041516 | 66 | 248 | 1.0 | 5.0 | 0.00 | 0.00 | 0.00 | 58 | 1012.6 |
| 20260506040515 | 66 | 0 | 1.0 | 3.0 | 0.00 | 0.00 | 0.00 | 58 | 1012.6 |
| 20260506035517 | 66 | 113 | 1.0 | 3.0 | 0.00 | 0.00 | 0.00 | 58 | 1012.6 |
| 20260506034516 | 66 | 0.0 | 4.0 | 0.00 | 0.00 | 0.00 | 58 | 1012.4 | |
| 20260506033516 | 66 | 293 | 1.0 | 7.0 | 0.00 | 0.00 | 0.00 | 57 | 1012.4 |
| 20260506032516 | 67 | 135 | 1.0 | 5.0 | 0.00 | 0.00 | 0.00 | 57 | 1012.5 |
| 20260506031557 | 66 | 0.0 | 2.0 | 0.00 | 0.00 | 0.00 | 57 | 1012.4 | |
| 20260506030516 | 67 | 0.0 | 2.0 | 0.00 | 0.00 | 0.00 | 56 | 1012.6 | |
| 20260506025516 | 67 | 158 | 1.0 | 5.0 | 0.00 | 0.00 | 0.00 | 55 | 1012.6 |
| 20260506024516 | 67 | 0.0 | 0.0 | 0.00 | 0.00 | 0.00 | 54 | 1012.6 | |
| 20260506023516 | 68 | 0.0 | 1.0 | 0.00 | 0.00 | 0.00 | 54 | 1012.7 | |
| 20260506022516 | 69 | 0.0 | 0.0 | 0.00 | 0.00 | 0.00 | 51 | 1012.6 | |
| 20260506021516 | 69 | 0.0 | 3.0 | 0.00 | 0.00 | 0.00 | 51 | 1012.6 | |
| 20260506020516 | 70 | 0.0 | 6.0 | 0.00 | 0.00 | 0.00 | 50 | 1012.7 | |
| 20260506015516 | 70 | 248 | 1.0 | 3.0 | 0.00 | 0.00 | 0.00 | 49 | 1012.4 |
| 20260506014516 | 70 | 0.0 | 2.0 | 0.00 | 0.00 | 0.00 | 50 | 1012.4 | |
| 20260506013516 | 71 | 270 | 1.0 | 4.0 | 0.00 | 0.00 | 0.00 | 48 | 1012.2 |
| 20260506012516 | 71 | 270 | 1.0 | 6.0 | 0.00 | 0.00 | 0.00 | 48 | 1012.2 |
| 20260506011516 | 71 | 293 | 1.0 | 6.0 | 0.00 | 0.00 | 0.00 | 47 | 1012.0 |
| 20260506010516 | 71 | 0.0 | 3.0 | 0.00 | 0.00 | 0.00 | 47 | 1011.8 | |
| 20260506005516 | 72 | 270 | 1.0 | 3.0 | 0.00 | 0.00 | 0.00 | 46 | 1011.8 |
| 20260506004516 | 71 | 270 | 1.0 | 5.0 | 0.00 | 0.00 | 0.00 | 47 | 1011.7 |
| 20260506003516 | 71 | 0.0 | 0.0 | 0.00 | 0.00 | 0.00 | 47 | 1011.5 | |
| 20260506002516 | 72 | 0.0 | 0.0 | 0.00 | 0.00 | 0.00 | 47 | 1011.4 | |
| 20260506001516 | 72 | 0.0 | 0.0 | 0.00 | 0.00 | 0.00 | 48 | 1011.5 | |
| 20260506000516 | 72 | 0.0 | 0.0 | 0.00 | 0.00 | 0.00 | 47 | 1011.3 | |
| 20260505235516 | 72 | 0.0 | 0.0 | 0.00 | 0.00 | 0.00 | 47 | 1011.2 | |
| 20260505234516 | 72 | 0.0 | 0.0 | 0.00 | 0.00 | 0.00 | 47 | 1011.2 | |
| 20260505233516 | 73 | 0.0 | 0.0 | 0.00 | 0.00 | 0.00 | 46 | 1010.9 | |
| 20260505232516 | 73 | 0.0 | 0.0 | 0.00 | 0.00 | 0.00 | 46 | 1010.9 | |
| 20260505231536 | 73 | 0.0 | 0.0 | 0.00 | 0.00 | 0.00 | 45 | 1010.7 | |
| 20260505230536 | 74 | 0.0 | 0.0 | 0.00 | 0.00 | 0.00 | 45 | 1010.7 | |
| 20260505225516 | 74 | 0.0 | 0.0 | 0.00 | 0.00 | 0.00 | 44 | 1010.6 | |
| 20260505224536 | 74 | 0.0 | 0.0 | 0.00 | 0.00 | 0.00 | 43 | 1010.5 | |
| 20260505223516 | 74 | 0.0 | 0.0 | 0.00 | 0.00 | 0.00 | 43 | 1010.4 | |
| 20260505222516 | 74 | 0.0 | 0.0 | 0.00 | 0.00 | 0.00 | 43 | 1010.3 | |
| 20260505221516 | 75 | 0.0 | 0.0 | 0.00 | 0.00 | 0.00 | 43 | 1010.4 | |
| 20260505220536 | 75 | 0.0 | 0.0 | 0.00 | 0.00 | 0.00 | 42 | 1010.3 | |
| 20260505215516 | 76 | 0.0 | 0.0 | 0.00 | 0.00 | 0.00 | 44 | 1010.4 | |
| 20260505214516 | 76 | 0.0 | 0.0 | 0.00 | 0.00 | 0.00 | 42 | 1010.2 | |
| 20260505213516 | 76 | 0.0 | 0.0 | 0.00 | 0.00 | 0.00 | 40 | 1010.0 | |
| 20260505212516 | 77 | 0.0 | 0.0 | 0.00 | 0.00 | 0.00 | 35 | 1010.0 | |
| 20260505211516 | 77 | 293 | 1.0 | 2.0 | 0.00 | 0.00 | 0.00 | 34 | 1010.0 |
| 20260505210516 | 78 | 293 | 2.0 | 9.0 | 0.00 | 0.00 | 0.00 | 35 | 1010.1 |
| 20260505205536 | 78 | 225 | 3.0 | 10.0 | 0.00 | 0.00 | 0.00 | 33 | 1009.7 |
| 20260505204516 | 79 | 225 | 3.0 | 7.0 | 0.00 | 0.00 | 0.00 | 32 | 1010.1 |
| 20260505203516 | 78 | 248 | 2.0 | 7.0 | 0.00 | 0.00 | 0.00 | 34 | 1009.9 |
| 20260505202516 | 79 | 225 | 2.0 | 7.0 | 0.00 | 0.00 | 0.00 | 32 | 1009.8 |
| 20260505201516 | 79 | 225 | 2.0 | 5.0 | 0.00 | 0.00 | 0.00 | 33 | 1009.7 |
| 20260505200516 | 79 | 248 | 3.0 | 15.0 | 0.00 | 0.00 | 0.00 | 33 | 1009.9 |
| 20260505195515 | 79 | 293 | 3.0 | 8.0 | 0.00 | 0.00 | 0.00 | 32 | 1009.9 |
| 20260505194516 | 78 | 248 | 4.0 | 9.0 | 0.00 | 0.00 | 0.00 | 33 | 1010.0 |
| 20260505193536 | 78 | 293 | 2.0 | 6.0 | 0.00 | 0.00 | 0.00 | 34 | 1010.3 |
| 20260505192516 | 79 | 293 | 3.0 | 13.0 | 0.00 | 0.00 | 0.00 | 33 | 1010.5 |
| 20260505191516 | 80 | 270 | 3.0 | 8.0 | 0.00 | 0.00 | 0.00 | 34 | 1010.5 |
| 20260505190515 | 80 | 203 | 2.0 | 7.0 | 0.00 | 0.00 | 0.00 | 35 | 1010.8 |
| 20260505185515 | 80 | 270 | 3.0 | 8.0 | 0.00 | 0.00 | 0.00 | 34 | 1010.9 |
| 20260505184535 | 80 | 293 | 3.0 | 13.0 | 0.00 | 0.00 | 0.00 | 37 | 1011.0 |
| 20260505183515 | 80 | 270 | 2.0 | 11.0 | 0.00 | 0.00 | 0.00 | 37 | 1011.2 |
| 20260505182515 | 79 | 225 | 4.0 | 12.0 | 0.00 | 0.00 | 0.00 | 36 | 1011.4 |
| 20260505181515 | 80 | 270 | 4.0 | 12.0 | 0.00 | 0.00 | 0.00 | 37 | 1011.3 |
| 20260505180515 | 79 | 270 | 3.0 | 13.0 | 0.00 | 0.00 | 0.00 | 38 | 1011.4 |
| 20260505175515 | 79 | 248 | 3.0 | 10.0 | 0.00 | 0.00 | 0.00 | 39 | 1011.4 |
| 20260505174515 | 79 | 0.0 | 0.0 | 0.00 | 0.00 | 0.00 | 41 | 1011.5 | |
| 20260505173515 | 79 | 0.0 | 0.0 | 0.00 | 0.00 | 0.00 | 41 | 1011.5 | |
| 20260505172515 | 79 | 0.0 | 0.0 | 0.00 | 0.00 | 0.00 | 38 | 1011.5 | |
| 20260505171515 | 79 | 0.0 | 0.0 | 0.00 | 0.00 | 0.00 | 39 | 1011.5 | |
| 20260505170517 | 79 | 0.0 | 0.0 | 0.00 | 0.00 | 0.00 | 41 | 1011.7 | |
| 20260505165517 | 78 | 0.0 | 0.0 | 0.00 | 0.00 | 0.00 | 44 | 1011.8 | |
| 20260505164515 | 78 | 0.0 | 0.0 | 0.00 | 0.00 | 0.00 | 46 | 1011.8 | |
| 20260505163517 | 78 | 0.0 | 0.0 | 0.00 | 0.00 | 0.00 | 45 | 1012.1 | |
| 20260505162515 | 78 | 0.0 | 0.0 | 0.00 | 0.00 | 0.00 | 46 | 1012.0 | |
| 20260505161517 | 78 | 0.0 | 0.0 | 0.00 | 0.00 | 0.00 | 44 | 1012.4 | |
| 20260505160517 | 76 | 0.0 | 0.0 | 0.00 | 0.00 | 0.00 | 46 | 1012.3 |